Content
SEND FEEDBACK

Daily
Averages
Monthly
Summary
United Kingdom

TELFORD, ENGLAND


Home > Europe > United Kingdom > England
Elevation: 269 feet     Latitude: 52 52N     Longitude: 002 31W

WEATHER
 
SELECT A DAY
Number of Records: 175,368;   Date Range: 7/1/96 - 12/16/14
 
SHARE

PRINT THIS DATA

[ ← Previous Day ]
WEATHER ALMANAC - NOVEMBER 1, 2013
[ Next Day → ]
[ °C ]   °F
Weather ElementAverageHighLow
Temperature48.7 °F51.8 °F (10:50 am)46 °F (9:00 pm)
Dewpoint47.3 °F51.8 °F (12:50 pm)44.6 °F (1:50 am)
Humidity94.6 %100 % (11:21 am)85 % (3:00 am)
Barometer29.71 in29.83 in (12:50 am)29.59 in (10:50 pm)
Wind Speed4.7 mph12.7 mph (1:29 pm)
Weather ElementAverage
Visibility5.4 mi
Wind DirectionSSE (170 °)

Weather ElementTotal
Precipitation---
Heating Degree Days16.1 (Base 65)
Averaged from 36 records on November 1, 2013
WEATHER CONDITIONS BREAKOUT
WIND DIRECTION BREAKOUT
WEATHER BY HOUR - NOVEMBER 1, 2013
[ °C ]   °F
Local TimeTemperatureDewpointHumidityBarometerVisibilityWind DirectionWind SpeedGust SpeedPrecipitationEventsConditions
12:50 AM50.0 °F46.4 °F87 %29.83 in6.2 miSSW (200°)4.6 mphScattered Clouds
1:50 AM48.2 °F44.6 °F87 %29.83 in6.2 miSSW (200°)8.1 mph
2:50 AM50.0 °F46.4 °F87 %29.83 in6.2 miSSW (210°)11.5 mphRainLight Rain Showers
3:00 AM49.0 °F46.0 °F85 %29.83 in11.0 miSSW (210°)11.5 mphRainLight Rain Showers
3:50 AM50.0 °F46.4 °F87 %29.80 in6.2 miSSW (200°)6.9 mphRainLight Rain Showers
4:50 AM48.2 °F46.4 °F93 %29.80 in6.2 miSSW (210°)5.8 mphScattered Clouds
5:50 AM46.4 °F44.6 °F93 %29.80 in6.2 miWSW (240°)5.8 mphPartly Cloudy
6:50 AM46.4 °F44.6 °F93 %29.77 in6.2 miSouth (190°)8.1 mphMostly Cloudy
7:50 AM48.2 °F44.6 °F87 %29.80 in6.2 miSSW (200°)2.3 mphMostly Cloudy
8:50 AM48.2 °F46.4 °F93 %29.80 in6.2 miSE (140°)3.5 mphRainLight Rain
9:50 AM50.0 °F48.2 °F94 %29.77 in5.6 miSouth (180°)6.9 mphRainLight Rain
10:09 AM50.0 °F48.2 °F94 %29.77 in3.7 miSouth (170°)5.8 mphRainLight Rain
10:22 AM50.0 °F48.2 °F94 %29.74 in6.2 miSouth (170°)5.8 mphRainLight Rain
10:50 AM51.8 °F48.2 °F88 %29.74 in6.2 miSouth (170°)5.8 mphRainLight Rain
11:21 AM50.0 °F50.0 °F100 %29.74 in6.2 miSSE (150°)4.6 mphRainLight Rain
11:38 AM51.8 °F50.0 °F94 %29.71 in2.5 miEast (100°)3.5 mphRainLight Rain
11:50 AM51.8 °F50.0 °F94 %29.71 in4.3 miEast (90°)2.3 mphRainLight Rain
12:00 PM51.0 °F50.0 °F95 %29.73 in4.0 miEast (90°)2.3 mphRainLight Rain
12:50 PM51.8 °F51.8 °F100 %29.68 in4.3 miSE (140°)3.5 mphRainLight Rain
12:56 PM51.8 °F51.8 °F100 %29.68 inSSE (150°)3.5 mphRainLight Rain
1:09 PM51.8 °F51.8 °F100 %29.68 in1.4 miWest (260°)4.6 mphRainHeavy Rain
1:29 PM50.0 °F50.0 °F100 %29.68 in2.8 miNNW (330°)12.7 mphRainHeavy Rain
1:50 PM48.2 °F46.4 °F93 %29.68 in2.8 miNNW (340°)11.5 mphRainHeavy Rain
2:50 PM48.2 °F46.4 °F93 %29.65 in6.2 miEast (80°)2.3 mphRainLight Rain
3:00 PM48.0 °F46.0 °F91 %29.68 in12.0 miEast (80°)2.3 mphRainLight Rain
3:50 PM48.2 °F46.4 °F93 %29.65 in6.2 miNE (40°)2.3 mphRainRain
4:50 PM46.4 °F46.4 °F100 %29.65 in6.2 miESE (110°)1.2 mphRainLight Rain
5:50 PM46.4 °F46.4 °F100 %29.62 in6.2 miCalmRainLight Rain Showers
6:00 PM47.0 °F47.0 °F98 %29.65 in10.0 miCalmRainLight Rain Showers
6:50 PM46.4 °F46.4 °F100 %29.62 in4.3 miCalmRainLight Rain
7:50 PM46.4 °F46.4 °F100 %29.62 in3.1 miESE (120°)3.5 mphRainRain
8:50 PM46.4 °F46.4 °F100 %29.62 in3.1 miWest (280°)4.6 mphMostly Cloudy
9:00 PM46.0 °F46.0 °F98 %29.65 in3.0 miWest (280°)4.6 mphRainRain
9:50 PM46.4 °F46.4 °F100 %29.62 inCalmRainRain
10:50 PM46.4 °F44.6 °F93 %29.59 in1.4 miNNW (330°)3.5 mphRainLight Rain
11:50 PM46.4 °F46.4 °F100 %29.59 inWNW (290°)3.5 mphRainLight Rain
Hourly data recorded from EGOS, located miles away from Telford, England







STORIES FROM OUR PARTNERS